Total_Precipitation_Accumulation
1.52 1.37 1.16 1.06 0.98 0.88 0.86 0.88 0.82 0.77 0.71 0.66 0.61 0.51 0.46 0.41 0.38 0.35 0.33 0.34 0.45 0.68 0.90 1.08 1.13 1.07 1.06 1.02 0.87 0.81 0.77 0.76 0.76 0.76 0.73 0.68 0.66 0.66 0.68 0.70 0.69 0.70 0.71
1.72 1.64 1.49 1.31 1.20 1.09 0.97 0.94 0.86 0.82 0.79 0.73 0.66 0.58 0.54 0.48 0.43 0.39 0.33 0.29 0.35 0.48 0.75 1.05 1.31 1.41 1.41 1.38 1.21 1.09 0.99 0.90 0.88 0.84 0.82 0.79 0.75 0.73 0.73 0.76 0.75 0.78 0.81
1.85 1.85 1.72 1.56 1.34 1.30 1.27 1.20 1.06 0.95 0.89 0.82 0.75 0.69 0.65 0.58 0.50 0.47 0.43 0.37 0.34 0.36 0.54 0.82 1.14 1.33 1.43 1.54 1.48 1.37 1.22 1.07 0.99 0.94 0.91 0.89 0.86 0.81 0.80 0.83 0.87 0.91 0.93
1.91 1.96 1.86 1.74 1.65 1.49 1.42 1.38 1.27 1.13 1.03 0.97 0.87 0.82 0.80 0.73 0.61 0.52 0.47 0.45 0.44 0.39 0.42 0.62 0.83 1.02 1.17 1.33 1.51 1.56 1.50 1.30 1.12 1.02 0.97 0.96 0.95 0.96 0.96 0.97 0.96 0.99 1.00
2.17 2.05 1.91 1.81 1.86 1.79 1.58 1.49 1.41 1.25 1.12 1.02 0.96 0.91 0.87 0.82 0.76 0.69 0.58 0.47 0.42 0.42 0.43 0.53 0.65 0.71 0.84 0.99 1.26 1.51 1.56 1.51 1.33 1.16 1.07 1.02 1.02 1.06 1.12 1.16 1.13 1.09 1.10
2.39 2.35 2.16 2.08 2.04 2.00 1.83 1.64 1.50 1.36 1.21 1.18 1.11 1.03 0.99 0.97 0.88 0.81 0.75 0.65 0.54 0.45 0.44 0.48 0.56 0.58 0.62 0.74 0.93 1.19 1.39 1.47 1.46 1.40 1.30 1.25 1.24 1.24 1.31 1.34 1.34 1.32 1.34
2.47 2.51 2.43 2.35 2.24 2.03 1.92 1.83 1.70 1.54 1.37 1.36 1.36 1.19 1.05 1.01 0.98 0.89 0.83 0.75 0.66 0.59 0.55 0.53 0.57 0.59 0.57 0.64 0.71 0.85 1.02 1.18 1.33 1.42 1.41 1.38 1.41 1.43 1.44 1.49 1.51 1.52 1.57
2.64 2.56 2.48 2.50 2.50 2.30 2.10 1.96 1.90 1.74 1.54 1.50 1.52 1.49 1.28 1.12 0.98 0.88 0.84 0.78 0.70 0.67 0.67 0.67 0.67 0.67 0.64 0.62 0.62 0.67 0.75 0.95 1.24 1.52 1.61 1.59 1.64 1.65 1.66 1.71 1.79 1.83 1.88
2.82 2.61 2.52 2.53 2.56 2.53 2.42 2.29 2.19 2.04 1.85 1.73 1.62 1.71 1.54 1.19 0.95 0.88 0.85 0.81 0.76 0.71 0.70 0.73 0.75 0.76 0.72 0.68 0.65 0.66 0.73 0.85 1.17 1.55 1.78 1.88 1.91 1.93 2.02 2.09 2.17 2.24 2.22
2.92 2.79 2.67 2.58 2.55 2.53 2.48 2.48 2.45 2.34 2.21 2.06 1.89 1.68 1.52 1.29 1.14 0.98 0.86 0.84 0.84 0.81 0.79 0.78 0.80 0.82 0.81 0.76 0.76 0.81 0.86 0.94 1.14 1.52 1.91 2.16 2.34 2.48 2.56 2.64 2.69 2.71 2.61
2.93 2.80 2.68 2.61 2.52 2.46 2.46 2.47 2.45 2.45 2.33 2.17 2.01 1.86 1.70 1.44 1.21 1.13 0.94 0.81 0.81 0.78 0.77 0.77 0.75 0.73 0.77 0.80 0.83 0.95 1.06 1.11 1.26 1.56 2.02 2.43 2.71 3.02 3.23 3.30 3.30 3.23 3.12
2.81 2.74 2.66 2.53 2.45 2.44 2.42 2.45 2.44 2.45 2.42 2.23 2.07 1.90 1.80 1.64 1.41 1.29 1.17 0.98 0.93 0.84 0.78 0.76 0.79 0.81 0.82 0.85 0.92 1.10 1.17 1.23 1.39 1.67 2.09 2.45 2.71 3.00 3.26 3.52 3.60 3.52 3.44
2.62 2.43 2.44 2.44 2.35 2.29 2.39 2.49 2.45 2.32 2.31 2.25 2.15 2.01 1.87 1.68 1.52 1.50 1.50 1.36 1.21 1.02 0.94 0.89 0.86 0.90 0.96 1.02 1.07 1.23 1.20 1.25 1.35 1.52 1.86 2.19 2.33 2.47 2.69 3.09 3.44 3.55 3.48
2.63 2.45 2.34 2.38 2.42 2.34 2.31 2.40 2.40 2.26 2.18 2.14 2.08 2.04 1.97 1.82 1.69 1.64 1.66 1.77 1.74 1.47 1.26 1.12 1.04 1.07 1.11 1.15 1.24 1.35 1.23 1.36 1.38 1.41 1.57 1.79 1.85 1.87 1.94 2.16 2.53 2.83 3.05
2.50 2.45 2.37 2.32 2.33 2.37 2.36 2.37 2.34 2.19 2.11 2.07 1.98 1.94 1.87 1.77 1.75 1.73 1.78 1.91 2.11 1.99 1.61 1.29 1.22 1.21 1.25 1.24 1.29 1.17 1.06 1.24 1.30 1.29 1.33 1.41 1.44 1.40 1.41 1.55 1.72 1.88 2.09
2.13 2.25 2.27 2.20 2.18 2.17 2.21 2.28 2.28 2.18 2.06 1.99 1.94 1.91 1.84 1.72 1.69 1.72 1.75 1.79 1.92 2.05 1.84 1.36 1.16 1.11 1.15 1.17 1.24 1.04 0.95 1.13 1.09 1.09 1.16 1.22 1.24 1.20 1.20 1.28 1.36 1.42 1.46
1.87 1.96 2.02 2.01 2.00 2.00 1.99 2.04 2.03 2.01 1.98 1.87 1.83 1.82 1.76 1.66 1.64 1.62 1.63 1.66 1.68 1.73 1.72 1.33 1.06 0.99 1.03 1.02 1.02 0.91 0.85 0.85 0.83 0.95 0.96 1.01 1.05 1.06 1.10 1.14 1.19 1.24 1.28
1.60 1.71 1.76 1.80 1.79 1.78 1.76 1.77 1.75 1.71 1.73 1.69 1.63 1.64 1.63 1.59 1.56 1.51 1.53 1.50 1.46 1.45 1.46 1.32 1.07 0.95 0.89 0.83 0.79 0.75 0.70 0.70 0.67 0.81 0.82 0.83 0.88 0.93 0.97 0.99 1.07 1.10 1.14
1.37 1.47 1.56 1.59 1.61 1.61 1.55 1.51 1.49 1.46 1.39 1.39 1.39 1.42 1.43 1.50 1.58 1.54 1.49 1.40 1.30 1.27 1.28 1.25 1.06 0.89 0.82 0.78 0.78 0.73 0.64 0.61 0.57 0.65 0.70 0.70 0.74 0.81 0.89 0.93 0.94 0.97 0.96
1.32 1.32 1.37 1.41 1.46 1.51 1.52 1.46 1.42 1.42 1.37 1.31 1.29 1.35 1.39 1.42 1.46 1.46 1.44 1.36 1.31 1.32 1.28 1.29 1.20 1.03 0.92 0.85 0.86 0.83 0.76 0.66 0.61 0.58 0.67 0.71 0.75 0.79 0.81 0.83 0.80 0.76 0.76
1.40 1.32 1.35 1.37 1.41 1.48 1.53 1.56 1.57 1.57 1.59 1.58 1.49 1.43 1.42 1.48 1.49 1.48 1.44 1.36 1.33 1.39 1.42 1.42 1.33 1.15 0.99 0.93 0.92 0.85 0.85 0.81 0.76 0.68 0.69 0.66 0.67 0.65 0.66 0.72 0.78 0.78 0.76
1.56 1.46 1.44 1.45 1.48 1.53 1.78 1.79 1.69 1.63 1.66 1.63 1.55 1.42 1.35 1.38 1.35 1.41 1.44 1.41 1.43 1.49 1.56 1.54 1.37 1.13 0.87 0.78 0.82 0.93 1.03 1.14 1.07 0.75 0.70 0.68 0.65 0.69 0.64 0.63 0.74 0.79 0.83
1.65 1.63 1.61 1.63 1.65 1.70 1.82 1.71 1.71 1.57 1.52 1.45 1.38 1.33 1.26 1.22 1.26 1.18 1.29 1.42 1.47 1.54 1.49 1.37 1.23 0.98 0.83 0.75 0.91 1.14 1.17 1.15 0.94 0.71 0.79 0.84 0.71 0.70 0.65 0.69 0.82 0.79 0.80
1.82 1.80 1.80 1.80 1.76 1.75 1.75 1.60 1.55 1.39 1.35 1.29 1.22 1.18 1.15 1.13 1.12 1.15 1.22 1.31 1.21 1.16 1.13 1.05 0.99 0.92 0.87 0.88 1.05 1.25 1.27 1.25 1.05 0.89 0.93 1.05 0.83 0.74 0.66 0.67 0.79 0.80 0.82
1.94 1.91 1.83 1.72 1.62 1.55 1.54 1.43 1.38 1.23 1.21 1.16 1.08 1.05 1.08 1.03 1.17 1.35 1.34 1.28 1.11 1.01 1.06 1.10 1.10 1.07 1.10 1.13 1.16 1.35 1.51 1.62 1.41 1.05 0.91 1.00 0.87 0.81 0.78 0.73 0.73 0.81 0.81
1.75 1.71 1.66 1.56 1.42 1.29 1.33 1.31 1.28 1.13 1.10 1.03 0.99 0.96 1.06 1.04 1.23 1.38 1.24 1.17 1.10 0.99 0.99 0.99 0.99 0.97 0.93 0.98 1.16 1.23 1.55 1.93 1.70 1.30 0.87 0.99 0.98 1.05 1.25 0.88 0.74 0.77 0.82